Time,TemperatureF,DewpointF,PressureIn,WindDirection,WindDirectionDegrees,WindSpeedMPH,WindSpeedGustMPH,Humidity,HourlyPrecipIn,Conditions,Clouds,dailyrainin,SoftwareType,DateUTC
2013-04-21 00:01:00,45.0,38.0,30.13,SSW,198,0.0,-999.0,76,-99.99,,,-99.99,,2013-04-21 07:01:00,
2013-04-21 00:11:00,43.0,38.0,30.14,West,278,1.0,-999.0,83,-99.99,,,-99.99,,2013-04-21 07:11:00,
2013-04-21 00:21:00,43.0,38.0,30.14,West,278,1.0,-999.0,83,-99.99,,,-99.99,,2013-04-21 07:21:00,
2013-04-21 00:31:00,44.0,37.0,30.14,West,268,0.0,-999.0,76,-99.99,,,-99.99,,2013-04-21 07:31:00,
2013-04-21 00:41:00,44.0,37.0,30.14,West,268,0.0,-999.0,76,-99.99,,,-99.99,,2013-04-21 07:41:00,
2013-04-21 00:52:00,45.0,37.0,30.14,West,269,0.0,-999.0,72,-99.99,,,-99.99,,2013-04-21 07:52:00,
2013-04-21 01:01:00,45.0,37.0,30.14,West,269,0.0,-999.0,74,-99.99,,,-99.99,,2013-04-21 08:01:00,
2013-04-21 01:11:00,45.0,37.0,30.14,West,269,0.0,-999.0,74,-99.99,,,-99.99,,2013-04-21 08:11:00,
2013-04-21 01:21:00,45.0,37.0,30.14,WSW,246,0.0,-999.0,72,-99.99,,,-99.99,,2013-04-21 08:21:00,
2013-04-21 01:31:00,45.0,37.0,30.14,WSW,246,0.0,-999.0,73,-99.99,,,-99.99,,2013-04-21 08:31:00,
2013-04-21 01:41:00,45.0,37.0,30.14,WSW,246,0.0,-999.0,73,-99.99,,,-99.99,,2013-04-21 08:41:00,
2013-04-21 01:52:00,45.0,38.0,30.14,WSW,246,0.0,-999.0,75,-99.99,,,-99.99,,2013-04-21 08:52:00,
2013-04-21 02:01:00,44.0,39.0,30.14,WSW,246,0.0,-999.0,82,-99.99,,,-99.99,,2013-04-21 09:01:00,
2013-04-21 02:11:00,44.0,39.0,30.14,WSW,246,0.0,-999.0,82,-99.99,,,-99.99,,2013-04-21 09:11:00,
2013-04-21 02:21:00,43.0,38.0,30.14,WSW,246,0.0,-999.0,81,-99.99,,,-99.99,,2013-04-21 09:21:00,
2013-04-21 02:32:00,43.0,38.0,30.14,WSW,246,0.0,-999.0,81,-99.99,,,-99.99,,2013-04-21 09:32:00,
2013-04-21 02:42:00,43.0,38.0,30.14,WSW,246,0.0,-999.0,81,-99.99,,,-99.99,,2013-04-21 09:42:00,
2013-04-21 02:53:00,43.0,39.0,30.14,WSW,246,0.0,-999.0,86,-99.99,,,-99.99,,2013-04-21 09:53:00,
2013-04-21 03:02:00,43.0,38.0,30.14,WSW,246,0.0,-999.0,83,-99.99,,,-99.99,,2013-04-21 10:02:00,
2013-04-21 03:12:00,43.0,38.0,30.14,WSW,246,0.0,-999.0,83,-99.99,,,-99.99,,2013-04-21 10:12:00,
2013-04-21 03:22:00,43.0,37.0,30.14,WNW,287,0.0,-999.0,79,-99.99,,,-99.99,,2013-04-21 10:22:00,
2013-04-21 03:32:00,43.0,37.0,30.14,West,279,1.0,-999.0,78,-99.99,,,-99.99,,2013-04-21 10:32:00,
2013-04-21 03:42:00,43.0,37.0,30.14,West,279,1.0,-999.0,78,-99.99,,,-99.99,,2013-04-21 10:42:00,
2013-04-21 03:52:00,43.0,37.0,30.14,West,269,1.0,-999.0,78,-99.99,,,-99.99,,2013-04-21 10:52:00,
2013-04-21 04:02:00,43.0,36.0,30.14,WNW,290,1.0,-999.0,77,-99.99,,,-99.99,,2013-04-21 11:02:00,
2013-04-21 04:11:00,43.0,36.0,30.14,WNW,290,1.0,-999.0,77,-99.99,,,-99.99,,2013-04-21 11:11:00,
2013-04-21 04:22:00,43.0,36.0,30.14,WNW,290,0.0,-999.0,77,-99.99,,,-99.99,,2013-04-21 11:22:00,
2013-04-21 04:33:00,43.0,37.0,30.14,WNW,290,0.0,-999.0,78,-99.99,,,-99.99,,2013-04-21 11:33:00,
2013-04-21 04:42:00,43.0,37.0,30.14,WNW,290,0.0,-999.0,78,-99.99,,,-99.99,,2013-04-21 11:42:00,
2013-04-21 04:52:00,42.0,36.0,30.14,WNW,290,0.0,-999.0,80,-99.99,,,-99.99,,2013-04-21 11:52:00,
2013-04-21 05:02:00,42.0,37.0,30.14,WNW,290,0.0,-999.0,82,-99.99,,,-99.99,,2013-04-21 12:02:00,
2013-04-21 05:12:00,42.0,37.0,30.14,WNW,290,0.0,-999.0,82,-99.99,,,-99.99,,2013-04-21 12:12:00,
2013-04-21 05:22:00,41.0,37.0,30.14,WNW,290,0.0,-999.0,84,-99.99,,,-99.99,,2013-04-21 12:22:00,
2013-04-21 05:31:00,41.0,36.0,30.14,WNW,290,1.0,-999.0,82,-99.99,,,-99.99,,2013-04-21 12:31:00,
2013-04-21 05:42:00,41.0,36.0,30.14,WNW,290,1.0,-999.0,82,-99.99,,,-99.99,,2013-04-21 12:42:00,
2013-04-21 05:52:00,42.0,37.0,30.14,WNW,290,3.0,-999.0,81,-99.99,,,-99.99,,2013-04-21 12:52:00,
2013-04-21 06:01:00,42.0,37.0,30.14,WNW,290,2.0,-999.0,81,-99.99,,,-99.99,,2013-04-21 13:01:00,
2013-04-21 06:11:00,42.0,37.0,30.14,WNW,290,2.0,-999.0,81,-99.99,,,-99.99,,2013-04-21 13:11:00,
2013-04-21 06:21:00,41.0,36.0,30.14,WNW,290,0.0,-999.0,83,-99.99,,,-99.99,,2013-04-21 13:21:00,
2013-04-21 06:32:00,41.0,36.0,30.14,WNW,290,0.0,-999.0,82,-99.99,,,-99.99,,2013-04-21 13:32:00,
2013-04-21 06:42:00,41.0,36.0,30.14,WNW,290,0.0,-999.0,82,-99.99,,,-99.99,,2013-04-21 13:42:00,
2013-04-21 06:52:00,41.0,37.0,30.14,WNW,290,0.0,-999.0,86,-99.99,,,-99.99,,2013-04-21 13:52:00,
2013-04-21 07:01:00,41.0,38.0,30.14,WNW,290,0.0,-999.0,88,-99.99,,,-99.99,,2013-04-21 14:01:00,
2013-04-21 07:11:00,41.0,38.0,30.14,WNW,290,0.0,-999.0,88,-99.99,,,-99.99,,2013-04-21 14:11:00,
2013-04-21 07:21:00,41.0,38.0,30.14,WNW,290,0.0,-999.0,90,-99.99,,,-99.99,,2013-04-21 14:21:00,
2013-04-21 07:31:00,41.0,38.0,30.14,WNW,290,0.0,-999.0,90,-99.99,,,-99.99,,2013-04-21 14:31:00,
2013-04-21 07:42:00,41.0,38.0,30.14,WNW,290,0.0,-999.0,90,-99.99,,,-99.99,,2013-04-21 14:42:00,
2013-04-21 07:52:00,41.0,38.0,30.14,WNW,290,0.0,-999.0,90,-99.99,,,-99.99,,2013-04-21 14:52:00,
2013-04-21 08:01:00,42.0,39.0,30.14,WNW,290,0.0,-999.0,88,-99.99,,,-99.99,,2013-04-21 15:01:00,
2013-04-21 08:11:00,42.0,39.0,30.14,WNW,290,0.0,-999.0,88,-99.99,,,-99.99,,2013-04-21 15:11:00,
2013-04-21 08:22:00,42.0,38.0,30.14,SSE,156,0.0,-999.0,87,-99.99,,,-99.99,,2013-04-21 15:22:00,
2013-04-21 08:33:00,43.0,38.0,30.14,SSE,156,0.0,-999.0,83,-99.99,,,-99.99,,2013-04-21 15:33:00,
2013-04-21 08:42:00,43.0,38.0,30.14,SSE,156,0.0,-999.0,83,-99.99,,,-99.99,,2013-04-21 15:42:00,
2013-04-21 08:53:00,43.0,38.0,30.14,SSE,156,0.0,-999.0,84,-99.99,,,-99.99,,2013-04-21 15:53:00,
2013-04-21 09:03:00,43.0,37.0,30.14,WNW,285,1.0,-999.0,80,-99.99,,,-99.99,,2013-04-21 16:03:00,
2013-04-21 09:12:00,43.0,37.0,30.14,WNW,285,1.0,-999.0,80,-99.99,,,-99.99,,2013-04-21 16:12:00,
2013-04-21 09:22:00,43.0,37.0,30.13,WNW,287,1.0,-999.0,80,-99.99,,,-99.99,,2013-04-21 16:22:00,
2013-04-21 09:32:00,44.0,38.0,30.13,WNW,283,2.0,-999.0,80,-99.99,,,-99.99,,2013-04-21 16:32:00,
2013-04-21 09:42:00,44.0,38.0,30.13,WNW,283,2.0,-999.0,80,-99.99,,,-99.99,,2013-04-21 16:42:00,
2013-04-21 09:52:00,43.0,37.0,30.13,NW,304,6.0,-999.0,80,-99.99,,,-99.99,,2013-04-21 16:52:00,
2013-04-21 10:01:00,44.0,38.0,30.12,NW,304,4.0,-999.0,80,-99.99,,,-99.99,,2013-04-21 17:01:00,
2013-04-21 10:12:00,44.0,38.0,30.12,NNW,343,4.0,-999.0,79,-99.99,,,-99.99,,2013-04-21 17:12:00,
2013-04-21 10:22:00,44.0,38.0,30.12,NNW,343,4.0,-999.0,79,-99.99,,,-99.99,,2013-04-21 17:22:00,
2013-04-21 10:32:00,45.0,37.0,30.12,WNW,300,4.0,-999.0,74,-99.99,,,-99.99,,2013-04-21 17:32:00,
2013-04-21 10:41:00,45.0,37.0,30.12,WNW,300,4.0,-999.0,74,-99.99,,,-99.99,,2013-04-21 17:41:00,
2013-04-21 10:52:00,46.0,37.0,30.12,SSW,196,4.0,-999.0,72,-99.99,,,-99.99,,2013-04-21 17:52:00,
2013-04-21 11:02:00,48.0,38.0,30.11,West,260,3.0,-999.0,69,-99.99,,,-99.99,,2013-04-21 18:02:00,
2013-04-21 11:11:00,48.0,38.0,30.11,West,260,3.0,-999.0,69,-99.99,,,-99.99,,2013-04-21 18:11:00,
2013-04-21 11:21:00,47.0,37.0,30.11,West,281,4.0,-999.0,68,-99.99,,,-99.99,,2013-04-21 18:21:00,
2013-04-21 11:32:00,48.0,38.0,30.11,WNW,288,5.0,-999.0,69,-99.99,,,-99.99,,2013-04-21 18:32:00,
2013-04-21 11:42:00,48.0,38.0,30.11,WNW,288,5.0,-999.0,69,-99.99,,,-99.99,,2013-04-21 18:42:00,
2013-04-21 11:52:00,48.0,36.0,30.10,WNW,298,7.0,-999.0,64,-99.99,,,-99.99,,2013-04-21 18:52:00,
2013-04-21 12:02:00,50.0,38.0,30.10,NW,309,7.0,-999.0,63,-99.99,,,-99.99,,2013-04-21 19:02:00,
2013-04-21 12:11:00,50.0,38.0,30.10,NW,309,7.0,-999.0,63,-99.99,,,-99.99,,2013-04-21 19:11:00,
2013-04-21 12:21:00,48.0,36.0,30.10,WNW,300,4.0,-999.0,64,-99.99,,,-99.99,,2013-04-21 19:21:00,
2013-04-21 12:31:00,44.0,37.0,30.11,SW,234,5.0,-999.0,76,-99.99,,,-99.99,,2013-04-21 19:31:00,
2013-04-21 12:42:00,44.0,37.0,30.11,SW,234,5.0,-999.0,76,-99.99,,,-99.99,,2013-04-21 19:42:00,
2013-04-21 12:52:00,46.0,37.0,30.10,WNW,291,1.0,-999.0,71,-99.99,,,-99.99,,2013-04-21 19:52:00,
2013-04-21 13:01:00,46.0,37.0,30.09,WNW,291,0.0,-999.0,70,-99.99,,,-99.99,,2013-04-21 20:01:00,
2013-04-21 13:11:00,46.0,37.0,30.09,WNW,291,0.0,-999.0,70,-99.99,,,-99.99,,2013-04-21 20:11:00,
2013-04-21 13:21:00,48.0,39.0,30.09,WNW,291,0.0,-999.0,70,-99.99,,,-99.99,,2013-04-21 20:21:00,
2013-04-21 13:31:00,49.0,39.0,30.08,NNE,32,1.0,-999.0,69,-99.99,,,-99.99,,2013-04-21 20:31:00,
2013-04-21 13:41:00,49.0,39.0,30.08,NNE,32,1.0,-999.0,69,-99.99,,,-99.99,,2013-04-21 20:41:00,
2013-04-21 13:52:00,50.0,36.0,30.08,SSW,211,2.0,-999.0,59,-99.99,,,-99.99,,2013-04-21 20:52:00,
2013-04-21 14:01:00,49.0,37.0,30.08,NW,309,7.0,-999.0,62,-99.99,,,-99.99,,2013-04-21 21:01:00,
2013-04-21 14:12:00,51.0,37.0,30.08,WNW,294,4.0,-999.0,59,-99.99,,,-99.99,,2013-04-21 21:12:00,
2013-04-21 14:21:00,51.0,37.0,30.08,WNW,294,4.0,-999.0,59,-99.99,,,-99.99,,2013-04-21 21:21:00,
2013-04-21 14:32:00,51.0,37.0,30.07,West,280,6.0,-999.0,59,-99.99,,,-99.99,,2013-04-21 21:32:00,
2013-04-21 14:43:00,51.0,37.0,30.07,West,280,6.0,-999.0,59,-99.99,,,-99.99,,2013-04-21 21:43:00,
2013-04-21 14:53:00,51.0,38.0,30.07,NW,306,6.0,-999.0,60,-99.99,,,-99.99,,2013-04-21 21:53:00,
2013-04-21 15:02:00,51.0,38.0,30.06,West,260,9.0,-999.0,60,-99.99,,,-99.99,,2013-04-21 22:02:00,
2013-04-21 15:12:00,51.0,38.0,30.06,West,260,9.0,-999.0,60,-99.99,,,-99.99,,2013-04-21 22:12:00,
2013-04-21 15:22:00,50.0,38.0,30.06,SW,219,7.0,-999.0,63,-99.99,,,-99.99,,2013-04-21 22:22:00,
2013-04-21 15:32:00,48.0,37.0,30.07,WNW,289,8.0,-999.0,66,-99.99,,,-99.99,,2013-04-21 22:32:00,
2013-04-21 15:42:00,48.0,37.0,30.07,WNW,289,8.0,-999.0,66,-99.99,,,-99.99,,2013-04-21 22:42:00,
2013-04-21 15:52:00,47.0,38.0,30.07,WNW,296,11.0,-999.0,72,-99.99,,,-99.99,,2013-04-21 22:52:00,
2013-04-21 16:02:00,47.0,38.0,30.06,NW,314,4.0,-999.0,70,-99.99,,,-99.99,,2013-04-21 23:02:00,
2013-04-21 16:12:00,47.0,38.0,30.06,NW,314,4.0,-999.0,70,-99.99,,,-99.99,,2013-04-21 23:12:00,
2013-04-21 16:22:00,49.0,38.0,30.05,WNW,284,7.0,-999.0,66,-99.99,,,-99.99,,2013-04-21 23:22:00,
2013-04-21 16:32:00,49.0,36.0,30.05,SW,232,4.0,-999.0,61,-99.99,,,-99.99,,2013-04-21 23:32:00,
2013-04-21 16:42:00,49.0,36.0,30.05,SW,232,4.0,-999.0,61,-99.99,,,-99.99,,2013-04-21 23:42:00,
2013-04-21 16:52:00,48.0,36.0,30.05,WSW,254,6.0,-999.0,64,-99.99,,,-99.99,,2013-04-21 23:52:00,
2013-04-21 17:01:00,49.0,37.0,30.05,WNW,293,3.0,-999.0,63,-99.99,,,-99.99,,2013-04-22 00:01:00,
2013-04-21 17:11:00,49.0,37.0,30.05,WNW,293,3.0,-999.0,63,-99.99,,,-99.99,,2013-04-22 00:11:00,
2013-04-21 17:21:00,49.0,35.0,30.05,West,281,5.0,-999.0,59,-99.99,,,-99.99,,2013-04-22 00:21:00,
2013-04-21 17:31:00,49.0,37.0,30.05,WNW,282,7.0,-999.0,62,-99.99,,,-99.99,,2013-04-22 00:31:00,
2013-04-21 17:42:00,49.0,37.0,30.05,WNW,282,7.0,-999.0,62,-99.99,,,-99.99,,2013-04-22 00:42:00,
2013-04-21 17:51:00,49.0,36.0,30.04,West,271,4.0,-999.0,60,-99.99,,,-99.99,,2013-04-22 00:51:00,
2013-04-21 18:01:00,48.0,34.0,30.04,NW,314,5.0,-999.0,59,-99.99,,,-99.99,,2013-04-22 01:01:00,
2013-04-21 18:11:00,48.0,34.0,30.04,NW,314,5.0,-999.0,59,-99.99,,,-99.99,,2013-04-22 01:11:00,
2013-04-21 18:21:00,47.0,35.0,30.04,WSW,253,4.0,-999.0,62,-99.99,,,-99.99,,2013-04-22 01:21:00,
2013-04-21 18:32:00,46.0,35.0,30.05,SSW,207,1.0,-999.0,66,-99.99,,,-99.99,,2013-04-22 01:32:00,
2013-04-21 18:41:00,46.0,35.0,30.05,SSW,207,1.0,-999.0,66,-99.99,,,-99.99,,2013-04-22 01:41:00,
2013-04-21 18:52:00,46.0,37.0,30.06,NW,311,1.0,-999.0,71,-99.99,,,-99.99,,2013-04-22 01:52:00,
2013-04-21 19:01:00,44.0,37.0,30.07,NW,323,5.0,-999.0,77,-99.99,,,-99.99,,2013-04-22 02:01:00,
2013-04-21 19:11:00,44.0,37.0,30.07,NW,323,5.0,-999.0,77,-99.99,,,-99.99,,2013-04-22 02:11:00,
2013-04-21 19:21:00,41.0,36.0,30.08,NW,322,9.0,-999.0,82,-99.99,,,-99.99,,2013-04-22 02:21:00,
2013-04-21 19:31:00,40.0,36.0,30.09,NW,317,8.0,-999.0,86,-99.99,,,-99.99,,2013-04-22 02:31:00,
2013-04-21 19:41:00,40.0,36.0,30.09,NW,317,8.0,-999.0,86,-99.99,,,-99.99,,2013-04-22 02:41:00,
2013-04-21 19:52:00,38.0,35.0,30.10,NNW,340,6.0,-999.0,89,-99.99,,,-99.99,,2013-04-22 02:52:00,
2013-04-21 20:01:00,38.0,35.0,30.11,NW,315,6.0,-999.0,90,-99.99,,,-99.99,,2013-04-22 03:01:00,
2013-04-21 20:11:00,38.0,35.0,30.11,NW,315,6.0,-999.0,90,-99.99,,,-99.99,,2013-04-22 03:11:00,
2013-04-21 20:22:00,37.0,35.0,30.10,NW,305,0.0,-999.0,91,-99.99,,,-99.99,,2013-04-22 03:22:00,
2013-04-21 20:33:00,37.0,35.0,30.11,NW,305,1.0,-999.0,92,-99.99,,,-99.99,,2013-04-22 03:33:00,
2013-04-21 20:42:00,37.0,35.0,30.11,NW,305,1.0,-999.0,92,-99.99,,,-99.99,,2013-04-22 03:42:00,
2013-04-21 20:52:00,37.0,35.0,30.13,NW,309,3.0,-999.0,93,-99.99,,,-99.99,,2013-04-22 03:52:00,
2013-04-21 21:02:00,37.0,35.0,30.13,West,280,3.0,-999.0,93,-99.99,,,-99.99,,2013-04-22 04:02:00,
2013-04-21 21:12:00,37.0,35.0,30.13,West,280,3.0,-999.0,93,-99.99,,,-99.99,,2013-04-22 04:12:00,
2013-04-21 21:23:00,37.0,35.0,30.13,WNW,288,2.0,-999.0,94,-99.99,,,-99.99,,2013-04-22 04:23:00,
2013-04-21 21:32:00,37.0,35.0,30.13,WNW,299,3.0,-999.0,94,-99.99,,,-99.99,,2013-04-22 04:32:00,
2013-04-21 21:43:00,37.0,35.0,30.13,WNW,299,3.0,-999.0,94,-99.99,,,-99.99,,2013-04-22 04:43:00,
2013-04-21 21:52:00,37.0,35.0,30.13,NW,311,2.0,-999.0,94,-99.99,,,-99.99,,2013-04-22 04:52:00,
2013-04-21 22:02:00,37.0,35.0,30.13,NW,311,2.0,-999.0,94,-99.99,,,-99.99,,2013-04-22 05:02:00,
2013-04-21 22:11:00,37.0,35.0,30.13,NW,311,2.0,-999.0,94,-99.99,,,-99.99,,2013-04-22 05:11:00,
2013-04-21 22:22:00,36.0,34.0,30.15,WNW,302,2.0,-999.0,93,-99.99,,,-99.99,,2013-04-22 05:22:00,
2013-04-21 22:32:00,36.0,34.0,30.15,WNW,302,2.0,-999.0,92,-99.99,,,-99.99,,2013-04-22 05:32:00,
2013-04-21 22:42:00,36.0,34.0,30.15,WNW,302,2.0,-999.0,92,-99.99,,,-99.99,,2013-04-22 05:42:00,
2013-04-21 22:52:00,36.0,34.0,30.15,WNW,302,2.0,-999.0,92,-99.99,,,-99.99,,2013-04-22 05:52:00,
2013-04-21 23:02:00,35.0,33.0,30.16,WNW,302,0.0,-999.0,91,-99.99,,,-99.99,,2013-04-22 06:02:00,
2013-04-21 23:11:00,35.0,33.0,30.16,WNW,302,0.0,-999.0,91,-99.99,,,-99.99,,2013-04-22 06:11:00,
2013-04-21 23:21:00,35.0,33.0,30.16,WNW,302,0.0,-999.0,92,-99.99,,,-99.99,,2013-04-22 06:21:00,
2013-04-21 23:32:00,34.0,32.0,30.16,WNW,302,0.0,-999.0,92,-99.99,,,-99.99,,2013-04-22 06:32:00,
2013-04-21 23:41:00,34.0,32.0,30.16,WNW,302,0.0,-999.0,92,-99.99,,,-99.99,,2013-04-22 06:41:00,
2013-04-21 23:51:00,34.0,32.0,30.17,WNW,302,0.0,-999.0,93,-99.99,,,-99.99,,2013-04-22 06:51:00,